[[{"header":{"parameterUnit":"m.s-1","parameterCategory":1,"la1":30.2991,"la2":30.254,"lo1":-89.0895,"lo2":-89.0444,"dy":0.0017,"dx":0.0017,"nx":28,"ny":28,"refTime":"2025-07-12T03:00:00:Z","depth":0,"parameterNumber":2,"parameterNumberName":"U-component_of_WINDS"},"data":[0,0,0,0,0,0,0,0,0,0,0,0,0,0,0,0,0,0,0,0,0,0,0,0,0,0,0,0,0,0,0,0,0,0,0,0,0,0,0,0,0,0,0,0,0,0,0,0,0,0,0,0,0,0,0,0,0,0,2.2691,2.2692,0,2.2778,2.2779,2.278,2.2781,2.278,2.2779,2.2778,2.2865,2.2868,2.2871,0,0,0,0,0,0,0,0,0,0,0,0,0,2.2522,2.2525,2.269,2.2692,2.2693,2.2777,2.2779,2.278,2.2781,2.278,2.2779,2.2777,2.2864,2.2867,2.2871,0,0,0,0,0,0,0,0,0,0,0,0,0,2.2601,2.2526,2.269,2.2704,2.2706,2.2777,2.2779,2.278,2.2782,2.278,2.2778,2.2777,2.2862,2.2867,2.2872,2.2935,0,0,2.2887,2.2889,0,0,0,0,0,0,0,0,2.2596,2.2607,2.2701,2.2703,2.2705,2.2767,2.2751,2.2832,2.2782,2.2753,2.2778,2.2776,2.2833,2.2841,2.286,2.2939,2.2943,2.2888,2.2891,2.2893,2.2894,0,0,0,0,0,0,0,2.2591,2.2603,2.2725,2.2702,2.2705,2.2704,2.2714,2.2766,2.2801,2.2755,2.2755,2.2766,2.2834,2.2856,2.2862,2.2944,2.2888,2.2892,2.2895,2.2897,2.3077,2.3078,0,0,0,0,0,0,2.2583,2.2598,2.2722,2.2727,2.2646,2.2708,2.2719,2.2749,2.28,2.2807,2.2767,2.2766,2.2848,2.2857,2.2865,2.2941,2.2893,2.2897,2.29,2.3075,2.3077,2.3079,0,0,0,0,0,0,2.2579,2.2594,2.2719,2.2663,2.2679,2.2713,2.2746,2.2751,2.2773,2.281,2.2815,2.2783,2.2847,2.2858,2.2917,2.2944,2.29,2.2904,2.3073,2.3076,2.3078,2.3093,0,0,0,0,0,0,2.2574,2.2593,2.2618,2.2664,2.2682,2.277,2.2748,2.2754,2.2781,2.278,2.2826,2.2832,2.2847,2.291,2.2922,2.295,2.2908,2.3071,2.3074,2.3077,2.3091,2.3096,2.3101,0,0,0,0,0,2.2568,2.2619,2.2619,2.2634,2.2714,2.2772,2.2782,2.2799,2.2784,2.2808,2.2832,2.283,2.2939,2.2916,2.293,2.2959,2.3069,2.3073,2.3077,2.3088,2.3095,2.3101,0,0,0,0,0,0,2.2575,2.2625,2.2626,2.2693,2.2728,2.2772,2.2804,2.2806,2.2845,2.2843,2.2861,2.2871,2.2929,2.2951,2.2924,2.3022,2.3002,2.3009,2.3006,2.3013,2.3018,2.3011,2.2912,0,0,0,0,0,2.2584,2.2628,2.2669,2.2724,2.2741,2.277,2.2795,2.2805,2.2842,2.2856,2.2884,2.2919,2.2961,2.2988,2.3029,2.3094,2.3103,2.3121,2.3126,2.313,2.3136,2.3169,2.3177,2.3092,2.3092,2.3092,0,0,2.2603,2.2636,2.2663,2.2726,2.2754,2.2797,2.2782,2.2829,2.286,2.2863,2.292,2.2942,2.2982,2.3043,2.3072,2.3063,2.3161,2.3136,2.3138,2.3142,2.3174,2.3182,2.3189,2.3095,2.3094,2.3094,0,0,2.266,2.2691,2.2739,2.2767,2.281,2.2829,2.284,2.2884,2.2898,2.2956,2.2958,2.2996,2.3068,2.3096,2.312,2.3186,2.3185,2.3198,2.3225,2.3257,2.3264,2.327,2.3291,2.3299,2.3204,2.3204,2.3204,0,2.2679,2.2745,2.2763,2.2809,2.2836,2.2841,2.2889,2.2915,2.2969,2.2987,2.2977,2.3066,2.3094,2.3161,2.3177,2.3197,2.3209,2.3193,2.3262,2.3268,2.3274,2.3294,2.3303,2.3205,2.3205,2.3205,2.3205,0,2.2764,2.2809,2.2843,2.2895,2.2926,2.2972,2.2996,2.3025,2.3032,2.3051,2.3108,2.3141,2.3188,2.3205,2.3212,2.3272,2.3265,2.3258,2.3238,2.3283,2.3302,2.331,2.3207,2.3207,2.3206,2.3206,0,0,2.2827,2.2888,2.2899,2.2922,2.297,2.3005,2.3051,2.3097,2.312,2.3157,2.3195,2.3256,2.3249,2.3276,2.3286,2.3315,2.3362,2.3304,2.3305,2.3312,2.3428,2.3431,2.344,2.3362,2.3364,2.3365,2.3424,0,2.2887,2.297,2.2987,2.3058,2.3099,2.3104,2.3144,2.3177,2.3195,2.3232,2.3252,2.3294,2.3284,2.3299,2.3328,2.335,2.3385,2.3347,2.3396,2.3397,2.3384,2.3451,2.3455,2.3508,2.3432,2.3433,2.3434,0,2.2968,2.3007,2.3082,2.3123,2.3141,2.3176,2.3219,2.3254,2.3291,2.3302,2.3332,2.3339,2.3385,2.3364,2.3427,2.34,2.3422,2.3435,2.3438,2.3441,2.3417,2.3454,2.3526,2.3533,2.3446,2.3445,2.3445,0,2.3004,2.3075,2.3129,2.3148,2.3197,2.3222,2.3243,2.3278,2.3304,2.3341,2.3358,2.34,2.3422,2.3454,2.3471,2.3455,2.3532,2.3513,2.3541,2.3541,2.3556,2.3554,2.363,2.3573,2.3573,2.3573,2.3573,0,2.3068,2.3113,2.3145,2.3178,2.3228,2.3247,2.3295,2.3316,2.3347,2.3383,2.339,2.3424,2.3446,2.3481,2.3496,2.3544,2.3555,2.3564,2.3567,2.3562,2.3561,2.3575,2.3571,2.3575,2.3574,2.3574,2.3574,0,2.3116,2.3139,2.3197,2.3239,2.325,2.3285,2.332,2.3351,2.337,2.3415,2.3427,2.3455,2.3498,2.3519,2.3572,2.3581,2.3636,2.3637,2.3623,2.3624,2.365,2.3646,2.3736,2.3748,2.3685,2.3685,2.3686,0,2.3154,2.3189,2.3234,2.3259,2.3281,2.3321,2.3347,2.3367,2.3394,2.3437,2.3462,2.3505,2.3541,2.3608,2.3633,2.3673,2.3674,2.3703,2.368,2.3674,2.3672,2.3669,2.3671,2.3706,2.3707,2.3707,2.3708,0,2.322,2.3229,2.3267,2.3309,2.334,2.3374,2.3407,2.3427,2.3451,2.3481,2.3525,2.3552,2.3606,2.3647,2.3689,2.371,2.3712,2.3715,2.3723,2.3718,2.3707,2.3711,2.3632,2.3712,2.3712,2.3711,2.3711,2.3711,2.3262,2.3293,2.3329,2.337,2.3398,2.3428,2.3459,2.3481,2.3518,2.3563,2.3573,2.3618,2.3652,2.3708,2.373,2.3765,2.3759,2.3771,2.3774,2.3776,2.3777,2.3703,2.3773,2.3773,2.3773,2.3773,2.3773,0,2.3326,2.3349,2.3388,2.3434,2.3466,2.3467,2.3503,2.3529,2.357,2.3602,2.3636,2.3685,2.3725,2.3753,2.3794,2.3816,2.3818,2.3826,2.3824,2.3828,2.3781,2.3769,2.3824,2.3824,2.3824,2.3824,2.3824,2.3824,2.3363,2.3413,2.3427,2.349,2.3513,2.3558,2.3579,2.3606,2.3632,2.3686,2.372,2.3738,2.3768,2.381,2.3847,2.3854,2.3867,2.3875,2.3882,2.3837,2.3832,2.3826,2.3815,2.3878,2.3878,2.3925,2.3926,2.3926]},{"header":{"parameterUnit":"m.s-1","parameterCategory":1,"la1":30.2991,"la2":30.254,"lo1":-89.0895,"lo2":-89.0444,"dy":0.0017,"dx":0.0017,"nx":28,"ny":28,"refTime":"2025-07-12T03:00:00:Z","depth":0,"parameterNumber":3,"parameterNumberName":"V-component_of_WINDS"},"data":[0,0,0,0,0,0,0,0,0,0,0,0,0,0,0,0,0,0,0,0,0,0,0,0,0,0,0,0,0,0,0,0,0,0,0,0,0,0,0,0,0,0,0,0,0,0,0,0,0,0,0,0,0,0,0,0,0,0,3.7192,3.7191,0,3.7143,3.7142,3.7142,3.7044,3.7042,3.704,3.7038,3.6989,3.6989,3.699,0,0,0,0,0,0,0,0,0,0,0,0,0,3.7199,3.72,3.7192,3.7191,3.719,3.7143,3.7142,3.7142,3.7044,3.7042,3.7039,3.7037,3.6989,3.6989,3.699,0,0,0,0,0,0,0,0,0,0,0,0,0,3.7178,3.72,3.7192,3.7136,3.713,3.7143,3.7142,3.7142,3.7045,3.7042,3.7039,3.7036,3.6989,3.6989,3.699,3.7053,0,0,3.6992,3.6993,0,0,0,0,0,0,0,0,3.7179,3.7178,3.7145,3.714,3.7134,3.7096,3.7127,3.7112,3.7045,3.7077,3.7038,3.7035,3.7027,3.7025,3.7022,3.7051,3.7049,3.6992,3.6993,3.6993,3.6993,0,0,0,0,0,0,0,3.7181,3.7179,3.7172,3.7144,3.7138,3.7113,3.7107,3.7124,3.7069,3.7074,3.7067,3.7063,3.7023,3.7021,3.702,3.7048,3.6992,3.6993,3.6994,3.6994,3.7124,3.7127,0,0,0,0,0,0,3.7191,3.7181,3.7174,3.7171,3.715,3.7115,3.7108,3.7111,3.7069,3.7059,3.7065,3.7058,3.7021,3.7019,3.7018,3.7087,3.6993,3.6994,3.6994,3.7121,3.7125,3.7128,0,0,0,0,0,0,3.7191,3.7191,3.7176,3.7174,3.717,3.7118,3.7123,3.7112,3.711,3.7062,3.7052,3.7073,3.7019,3.7017,3.7045,3.7084,3.6994,3.6995,3.7118,3.7123,3.7127,3.7228,0,0,0,0,0,0,3.7192,3.7192,3.7215,3.7175,3.7171,3.7204,3.7125,3.7113,3.7111,3.7102,3.7066,3.7058,3.7017,3.7044,3.7045,3.7084,3.6996,3.7114,3.712,3.7125,3.7221,3.7235,3.7248,0,0,0,0,0,3.7192,3.7247,3.7217,3.7217,3.7199,3.7207,3.7204,3.7155,3.7115,3.7138,3.7107,3.7059,3.708,3.7048,3.7048,3.7088,3.7111,3.7118,3.7125,3.7215,3.7233,3.7248,0,0,0,0,0,0,3.7293,3.724,3.7207,3.725,3.7233,3.719,3.7218,3.7176,3.7171,3.7162,3.7102,3.7095,3.713,3.7112,3.7077,3.7145,3.7088,3.7095,3.7156,3.7173,3.7186,3.7189,3.6996,0,0,0,0,0,3.732,3.7331,3.7284,3.7326,3.7319,3.727,3.7272,3.7235,3.7216,3.7209,3.718,3.7163,3.7165,3.7168,3.7168,3.7218,3.7208,3.7245,3.7259,3.727,3.7277,3.73,3.7315,3.7151,3.715,3.715,0,0,3.7377,3.7349,3.7359,3.7346,3.7328,3.734,3.7265,3.7281,3.7288,3.7211,3.7235,3.7213,3.719,3.7229,3.7245,3.7215,3.732,3.7279,3.7288,3.7288,3.7308,3.7324,3.7338,3.7155,3.7154,3.7154,0,0,3.7484,3.7465,3.7497,3.7481,3.7456,3.7423,3.7431,3.7394,3.7376,3.7399,3.734,3.7349,3.7355,3.734,3.7333,3.7435,3.739,3.7436,3.7507,3.753,3.7543,3.7554,3.7588,3.7602,3.7443,3.7444,3.7444,0,3.7557,3.7572,3.7519,3.7538,3.7533,3.7463,3.7494,3.7482,3.7458,3.7456,3.7423,3.7428,3.7408,3.7441,3.7465,3.7463,3.7469,3.744,3.7545,3.7556,3.7565,3.7597,3.7611,3.7449,3.7449,3.7448,3.7448,0,3.7662,3.7674,3.7703,3.768,3.7679,3.7704,3.7655,3.7659,3.7623,3.7594,3.7617,3.759,3.7582,3.7588,3.7553,3.7616,3.7598,3.7556,3.7497,3.7588,3.7617,3.7629,3.7457,3.7455,3.7454,3.7452,0,0,3.7832,3.778,3.7791,3.7779,3.7746,3.7753,3.7775,3.7767,3.7772,3.7758,3.7773,3.778,3.774,3.7733,3.7695,3.7716,3.7796,3.7671,3.767,3.7694,3.7861,3.7892,3.7907,3.7766,3.7768,3.777,3.7862,0,3.7931,3.7965,3.7917,3.7961,3.797,3.7903,3.7922,3.7903,3.7876,3.7879,3.7849,3.7853,3.7802,3.7796,3.7814,3.7783,3.7828,3.7775,3.7779,3.778,3.7786,3.7922,3.7955,3.8044,3.7874,3.7876,3.7877,0,3.8051,3.8042,3.8087,3.8049,3.8051,3.8069,3.8056,3.8061,3.8038,3.8016,3.8008,3.7963,3.7981,3.7925,3.7947,3.7912,3.7911,3.7896,3.7898,3.7895,3.7833,3.7922,3.8071,3.8084,3.7895,3.7893,3.7892,0,3.8168,3.8167,3.8193,3.8186,3.8143,3.8157,3.814,3.8114,3.8111,3.8101,3.8098,3.8091,3.8086,3.8081,3.8035,3.7998,3.8063,3.8003,3.8044,3.8045,3.806,3.8059,3.8209,3.8062,3.8062,3.8062,3.8061,0,3.8283,3.8313,3.8245,3.8261,3.8292,3.8237,3.8269,3.8245,3.8222,3.8232,3.8174,3.8185,3.8124,3.8128,3.8092,3.8115,3.8114,3.8097,3.8086,3.8101,3.8103,3.8098,3.809,3.8065,3.8064,3.8064,3.8063,0,3.8418,3.8375,3.8398,3.8356,3.8346,3.837,3.8333,3.8346,3.8315,3.8327,3.8327,3.8278,3.8279,3.8233,3.8225,3.8201,3.8239,3.8219,3.8247,3.824,3.8283,3.8279,3.8434,3.8451,3.8295,3.8296,3.8298,0,3.8494,3.8515,3.8474,3.8476,3.8462,3.8466,3.8463,3.841,3.8409,3.8384,3.8399,3.8395,3.8389,3.8394,3.8357,3.835,3.8328,3.8383,3.8327,3.834,3.8327,3.8325,3.8326,3.8394,3.8396,3.8398,3.8399,0,3.8632,3.8608,3.8606,3.8596,3.8594,3.8584,3.857,3.8575,3.8516,3.8518,3.8518,3.8514,3.8505,3.8501,3.8487,3.8469,3.8424,3.8417,3.8426,3.8441,3.8455,3.8446,3.8277,3.8414,3.8412,3.8411,3.8411,3.841,3.8738,3.8753,3.8726,3.8725,3.8709,3.8697,3.8706,3.8676,3.8675,3.8663,3.8632,3.8636,3.8611,3.8588,3.8573,3.8576,3.8548,3.8562,3.8565,3.8569,3.8576,3.8456,3.8573,3.8573,3.8572,3.8572,3.8572,0,3.8871,3.885,3.885,3.8832,3.8831,3.8789,3.8771,3.8773,3.8778,3.8758,3.8753,3.8753,3.8749,3.8712,3.8703,3.8712,3.8691,3.8711,3.8709,3.8705,3.8602,3.8595,3.8728,3.8728,3.8728,3.8728,3.8728,3.8728,3.894,3.8962,3.8936,3.895,3.8928,3.8933,3.8926,3.8914,3.8898,3.89,3.8896,3.8872,3.8845,3.8833,3.8827,3.8816,3.8815,3.8842,3.8824,3.8728,3.8713,3.8699,3.8691,3.8843,3.8843,3.8927,3.8928,3.8928]}]]